Cloverdale, Indiana, United States (46120)
Lat: 39.51N, Lon: 86.79W
Wx Zone: INZ045
Local Info
Past Weather Observations for Wednesday, October 29, 2014

NOTE: This archive is for the closest National Weather Service station to Cloverdale. Information may differ from the station used for current weather conditions.

Click here for Long-term Archive

Time Weather Temperature Dewpoint Humidity Pressure Winds Precip Visibility
23:53
Partly Cloudy
43°F / 6°C 34°F / 1°C 71% 30.15 in
(1021 mb)
NE 4.6 mph
(NE 7 kph)
- 10SM
22:53
Overcast
45°F / 7°C 36°F / 2°C 71% 30.15 in
(1021 mb)
N 4.6 mph
(N 7 kph)
- 10SM
21:53
Overcast
46°F / 8°C 36°F / 2°C 66% 30.15 in
(1021 mb)
N 6.9 mph
(N 11 kph)
- 10SM
20:53
Overcast
46°F / 8°C 36°F / 2°C 66% 30.15 in
(1021 mb)
Variable 5.8 mph
(Variable 9 kph)
- 10SM
19:53
Overcast
48°F / 9°C 36°F / 2°C 62% 30.15 in
(1021 mb)
Variable 4.6 mph
(Variable 7 kph)
- 10SM
18:53
Overcast
48°F / 9°C 36°F / 2°C 62% 30.15 in
(1021 mb)
NNW 6.9 mph
(NNW 11 kph)
- 10SM
17:53
Overcast
50°F / 10°C 36°F / 2°C 58% 30.12 in
(1020 mb)
NNW 3.5 mph
(NNW 6 kph)
- 10SM
16:53
Mostly Cloudy
52°F / 11°C 34°F / 1°C 50% 30.12 in
(1020 mb)
NW 6.9 mph
(NW 11 kph)
- 10SM
15:53
Mostly Cloudy
54°F / 12°C 36°F / 2°C 51% 30.09 in
(1019 mb)
NW 12.7 mph
(NW 20 kph)
- 10SM
14:53
Partly Cloudy
54°F / 12°C 36°F / 2°C 51% 30.09 in
(1019 mb)
WNW 9.2 mph
(WNW 15 kph)
- 10SM
13:53
Mostly Cloudy
55°F / 13°C 36°F / 2°C 47% 30.09 in
(1019 mb)
W 12.7 mph
(W 20 kph)
- 10SM
12:53
Partly Cloudy
54°F / 12°C 36°F / 2°C 51% 30.09 in
(1019 mb)
W 12.7 mph
(W 20 kph)
- 10SM
11:53
Clear
54°F / 12°C 34°F / 1°C 47% 30.12 in
(1020 mb)
NW 16.1 mph
(NW 26 kph)
- 10SM
10:53
Clear
52°F / 11°C 36°F / 2°C 54% 30.12 in
(1020 mb)
W 12.7 mph
(W 20 kph)
- 10SM
09:53
Clear
48°F / 9°C 36°F / 2°C 62% 30.12 in
(1020 mb)
W 10.4 mph
(W 17 kph)
- 10SM
08:53
Clear
46°F / 8°C 36°F / 2°C 66% 30.12 in
(1020 mb)
W 8.1 mph
(W 13 kph)
- 10SM
07:53
Clear
43°F / 6°C 37°F / 3°C 81% 30.09 in
(1019 mb)
W 4.6 mph
(W 7 kph)
- 10SM
06:53
Clear
39°F / 4°C 36°F / 2°C 87% 30.09 in
(1019 mb)
W 4.6 mph
(W 7 kph)
- 10SM
05:53
Clear
39°F / 4°C 36°F / 2°C 87% 30.09 in
(1019 mb)
W 4.6 mph
(W 7 kph)
- 10SM
04:53
Clear
39°F / 4°C 37°F / 3°C 93% 30.09 in
(1019 mb)
Calm - 10SM
03:53
Clear
43°F / 6°C 37°F / 3°C 81% 30.06 in
(1018 mb)
Calm - 10SM
02:53
Clear
45°F / 7°C 37°F / 3°C 76% 30.06 in
(1018 mb)
Calm - 10SM
01:53
Clear
48°F / 9°C 37°F / 3°C 66% 30.06 in
(1018 mb)
SSW 3.5 mph
(SSW 6 kph)
- 10SM
00:53
Clear
52°F / 11°C 36°F / 2°C 54% 30.06 in
(1018 mb)
WNW 4.6 mph
(WNW 7 kph)
- 10SM
Time Weather Temperature Dewpoint Humidity Pressure Winds Precip Visibility


Weather for websites

WeatherForYou.com, LLC is not responsible for any damages or problems caused by this service. Current weather conditions are obtained from the closest station including government and personal stations which may have varying degrees of accuracy. Weather forecasts are derived from the NOAA NDFD. Like all things, this site belongs to Jesus Christ... He just trusts me to maintain it. If you have any questions or comments email webmaster@weatherforyou.com

Copyright © 2014, WeatherForYou.com LLC. All rights reserved.